This is the latest recevied weather packets stored in our database for station/object W4FXD. If no packets are shown the sender has not sent any weather packets the latest 10 day(s).
| Time | Temp. | Humidity | Pressure | Rain* | Wind** | Luminosity | Snow |
|---|---|---|---|---|---|---|---|
| 1778088004 | 20° C | 94% | 1012.1 hPa | 0 mm | - | 296 W/m² | - |
| 1778087702 | 20° C | 93% | 1012.4 hPa | 0 mm | - | 218 W/m² | - |
| 1778087399 | 19.44° C | 95% | 1012.3 hPa | 0 mm | - | 406 W/m² | - |
| 1778087096 | 19.44° C | 95% | 1012.4 hPa | 0 mm | - | 287 W/m² | - |
| 1778086794 | 19.44° C | 96% | 1012.6 hPa | 0 mm | - | 550 W/m² | - |
| 1778086493 | 18.89° C | 97% | 1012.3 hPa | 0 mm | - | 454 W/m² | - |
| 1778086188 | 18.89° C | 98% | 1012.6 hPa | 0 mm | - | 516 W/m² | - |
| 1778085885 | 18.33° C | 98% | 1012.7 hPa | 0 mm | - | 301 W/m² | - |
| 1778085583 | 18.33° C | 98% | 1012.7 hPa | 0 mm | - | 206 W/m² | - |
| 1778085278 | 18.33° C | 99% | 1012.4 hPa | 0 mm | - | 167 W/m² | - |
| 1778084972 | 18.33° C | 99% | 1012.8 hPa | 0 mm | - | 302 W/m² | - |
| 1778084671 | 18.33° C | 99% | 1012.4 hPa | 0 mm | - | 191 W/m² | - |
| 1778084368 | 18.33° C | 99% | 1012.7 hPa | 0 mm | - | 242 W/m² | - |
| 1778084066 | 17.78° C | 99% | 1012.6 hPa | 0 mm | - | 275 W/m² | - |
| 1778083763 | 17.78° C | 99% | 1012.4 hPa | 0 mm | - | 173 W/m² | - |
| 1778083461 | 17.78° C | 99% | 1012.9 hPa | 0 mm | - | 228 W/m² | - |
| 1778083158 | 17.78° C | 99% | 1012.6 hPa | 0 mm | - | 179 W/m² | - |
| 1778082855 | 17.78° C | 99% | 1012.6 hPa | 0 mm | - | 180 W/m² | - |
| 1778081737 | 17.22° C | 99% | 1012.9 hPa | 0 mm | - | 61 W/m² | - |
| 1778081434 | 17.22° C | 99% | 1013 hPa | 0 mm | - | 72 W/m² | - |
| 1778081131 | 17.22° C | 99% | 1012.6 hPa | 0 mm | - | 106 W/m² | - |
| 1778080829 | 17.22° C | 99% | 1012.9 hPa | 0 mm | - | 99 W/m² | - |
| 1778080527 | 17.22° C | 99% | 1012.8 hPa | 0 mm | - | 110 W/m² | - |
| 1778080224 | 17.22° C | 99% | 1013.2 hPa | 1.27 mm | - | 147 W/m² | - |
| 1778079920 | 16.67° C | 99% | 1012.7 hPa | 1.27 mm | - | 92 W/m² | - |
* Rain latest hour (hover to see other rain measurements)
** Current wind speed in m/s (hover to see current wind gust speed)